Weather History for KOLU - November, 2013

Change the Weather History Date:

Sunday, November 3, 2013

  Actual Average Record
Temperature  
Mean Temperature 50 °F -  
Max Temperature 59 °F 51 °F 76 °F (1978)
Min Temperature 42 °F 31 °F 1 °F (1991)
Degree Days  
Heating Degree Days 14    
Moisture  
Dew Point 31 °F    
Average Humidity 49    
Maximum Humidity 58    
Minimum Humidity 39    
Precipitation  
Precipitation 0.00 in - - ()
Sea Level Pressure  
Sea Level Pressure 29.81 in    
Wind  
Wind Speed 17 mph (SSE)    
Max Wind Speed 30 mph    
Max Gust Speed 39 mph    
Visibility 10 miles    
Events      
Averages and records for this station are not official NWS values.
T = Trace of Precipitation, MM = Missing Value Source: NWS Daily Summary

Daily Weather History Graph

Daily Weather History Graph

Search for Another Location

Airport or City:

Trip Planner

Search our weather history database for the weather conditions in past years. The results will help you decide how hot, cold, wet, or windy it might be!

Date:

Astronomy

Nov. 03, 2013 Rise Set
Actual Time 7:03 AM CST 5:21 PM CST
Civil Twilight 6:34 AM CST 5:50 PM CST
Nautical Twilight 6:01 AM CST 6:23 PM CST
Astronomical Twilight 5:29 AM CST 6:55 PM CST
Moon 7:09 AM CST (11/3) 5:37 PM CST (11/3)
Length of Visible Light 11h 15m
Length of Day
10h 17m
New Moon, 0% of the Moon is Illuminated
Nov 3
New Moon
Nov 9
First Quarter
Nov 17
Full
Nov 25
Last Quarter
Dec 2
New

Hourly Weather History & Observations

Time (CST) Temp. Windchill Dew Point Humidity Pressure Visibility Wind Dir Wind Speed Gust Speed Precip Events Conditions
12:15 AM 44.6 °F 38.1 °F 28.4 °F 53% 30.03 in 10.0 mi SSE 13.8 mph - N/A   Clear
12:35 AM 42.8 °F 35.8 °F 28.4 °F 57% 30.02 in 10.0 mi SSE 13.8 mph - N/A   Clear
12:55 AM 42.8 °F 36.2 °F 28.4 °F 57% 30.01 in 10.0 mi SSE 12.7 mph 20.7 mph N/A   Clear
1:15 AM 42.8 °F 35.8 °F 28.4 °F 57% 30.01 in 10.0 mi SSE 13.8 mph - N/A   Clear
1:35 AM 42.8 °F 37.5 °F 26.6 °F 53% 30.00 in 10.0 mi SE 9.2 mph - N/A   Clear
1:55 AM 42.8 °F 37.0 °F 28.4 °F 57% 30.00 in 10.0 mi SSE 10.4 mph 16.1 mph N/A   Clear
1:15 AM 42.8 °F 37.5 °F 28.4 °F 57% 30.00 in 10.0 mi SSE 9.2 mph 18.4 mph N/A   Clear
1:35 AM 44.6 °F 37.4 °F 28.4 °F 53% 29.99 in 10.0 mi SSE 16.1 mph 21.9 mph N/A   Clear
1:55 AM 44.6 °F 37.8 °F 28.4 °F 53% 29.99 in 10.0 mi SSE 15.0 mph 23.0 mph N/A   Clear
2:15 AM 44.6 °F 37.2 °F 28.4 °F 53% 29.99 in 10.0 mi SSE 17.3 mph 23.0 mph N/A   Clear
2:35 AM 42.8 °F 35.8 °F 26.6 °F 53% 29.98 in 10.0 mi SSE 13.8 mph 20.7 mph N/A   Clear
2:55 AM 42.8 °F 35.8 °F 28.4 °F 57% 29.97 in 10.0 mi SE 13.8 mph 20.7 mph N/A   Clear
3:15 AM 42.8 °F 35.4 °F 28.4 °F 57% 29.96 in 10.0 mi SE 15.0 mph - N/A   Clear
3:35 AM 42.8 °F 34.8 °F 28.4 °F 57% 29.95 in 10.0 mi SE 17.3 mph 23.0 mph N/A   Clear
3:55 AM 42.8 °F 34.8 °F 28.4 °F 57% 29.94 in 10.0 mi SSE 17.3 mph 24.2 mph N/A   Clear
4:15 AM 42.8 °F 34.3 °F 28.4 °F 57% 29.93 in 10.0 mi SE 19.6 mph 26.5 mph N/A   Clear
4:35 AM 42.8 °F 34.0 °F 26.6 °F 53% 29.92 in 10.0 mi SE 20.7 mph 26.5 mph N/A   Clear
4:55 AM 42.8 °F 34.5 °F 26.6 °F 53% 29.91 in 10.0 mi SE 18.4 mph 26.5 mph N/A   Clear
5:15 AM 42.8 °F 34.8 °F 26.6 °F 53% 29.91 in 10.0 mi SE 17.3 mph 25.3 mph N/A   Clear
5:35 AM 44.6 °F 36.4 °F 26.6 °F 49% 29.91 in 10.0 mi SE 20.7 mph 27.6 mph N/A   Clear
5:55 AM 44.6 °F 37.2 °F 26.6 °F 49% 29.89 in 10.0 mi SE 17.3 mph 25.3 mph N/A   Clear
6:15 AM 42.8 °F 34.5 °F 26.6 °F 53% 29.88 in 10.0 mi SE 18.4 mph 28.8 mph N/A   Clear
6:35 AM 42.8 °F 34.3 °F 26.6 °F 53% 29.88 in 10.0 mi SE 19.6 mph 26.5 mph N/A   Clear
6:55 AM 42.8 °F 34.0 °F 26.6 °F 53% 29.88 in 10.0 mi SE 20.7 mph 27.6 mph N/A   Clear
7:15 AM 42.8 °F 34.3 °F 26.6 °F 53% 29.87 in 10.0 mi SE 19.6 mph 25.3 mph N/A   Clear
7:35 AM 44.6 °F 36.9 °F 26.6 °F 49% 29.86 in 10.0 mi SE 18.4 mph 27.6 mph N/A   Clear
7:55 AM 44.6 °F 36.9 °F 28.4 °F 53% 29.86 in 10.0 mi SE 18.4 mph 27.6 mph N/A   Clear
8:15 AM 46.4 °F 38.5 °F 28.4 °F 50% 29.86 in 10.0 mi SSE 21.9 mph 29.9 mph N/A   Clear
8:35 AM 46.4 °F 39.0 °F 28.4 °F 50% 29.85 in 10.0 mi SSE 19.6 mph 31.1 mph N/A   Clear
8:55 AM 46.4 °F 40.4 °F 28.4 °F 50% 29.85 in 10.0 mi SSE 13.8 mph 28.8 mph N/A   Clear
9:15 AM 48.2 °F - 30.2 °F 50% 29.85 in 10.0 mi SSE 20.7 mph 29.9 mph N/A   Clear
9:35 AM 50.0 °F - 30.2 °F 47% 29.83 in 10.0 mi SSE 17.3 mph 27.6 mph N/A   Clear
9:55 AM 51.8 °F - 30.2 °F 44% 29.81 in 10.0 mi SSE 23.0 mph 28.8 mph N/A   Clear
10:15 AM 51.8 °F - 30.2 °F 44% 29.80 in 10.0 mi SSE 27.6 mph 33.4 mph N/A   Clear
10:35 AM 51.8 °F - 32.0 °F 47% 29.79 in 10.0 mi SSE 19.6 mph 31.1 mph N/A   Clear
10:55 AM 51.8 °F - 32.0 °F 47% 29.79 in 10.0 mi SSE 18.4 mph 26.5 mph N/A   Clear
11:15 AM 55.4 °F - 33.8 °F 44% 29.78 in 10.0 mi SSE 20.7 mph 27.6 mph N/A   Clear
11:35 AM 55.4 °F - 33.8 °F 44% 29.76 in 10.0 mi South 20.7 mph 32.2 mph N/A   Clear
11:55 AM 55.4 °F - 33.8 °F 44% 29.75 in 10.0 mi South 29.9 mph 35.7 mph N/A   Clear
12:15 PM 57.2 °F - 33.8 °F 41% 29.73 in 10.0 mi South 24.2 mph 34.5 mph N/A   Clear
12:35 PM 57.2 °F - 33.8 °F 41% 29.72 in 10.0 mi South 24.2 mph 33.4 mph N/A   Clear
12:55 PM 59.0 °F - 33.8 °F 39% 29.71 in 10.0 mi South 21.9 mph 39.1 mph N/A   Clear
1:15 PM 57.2 °F - 33.8 °F 41% 29.71 in 10.0 mi SSE 26.5 mph 34.5 mph N/A   Clear
1:35 PM 59.0 °F - 33.8 °F 39% 29.71 in 10.0 mi South 26.5 mph 31.1 mph N/A   Clear
1:55 PM 59.0 °F - 33.8 °F 39% 29.70 in 10.0 mi SSE 23.0 mph 32.2 mph N/A   Clear
2:15 PM 59.0 °F - 33.8 °F 39% 29.70 in 10.0 mi SSE 24.2 mph 35.7 mph N/A   Clear
2:35 PM 57.2 °F - 33.8 °F 41% 29.69 in 10.0 mi South 21.9 mph 33.4 mph N/A   Clear
2:55 PM 59.0 °F - 33.8 °F 39% 29.68 in 10.0 mi SSE 25.3 mph 36.8 mph N/A   Clear
3:15 PM 59.0 °F - 33.8 °F 39% 29.69 in 10.0 mi SSE 23.0 mph 31.1 mph N/A   Clear
3:35 PM 57.2 °F - 33.8 °F 41% 29.69 in 10.0 mi South 20.7 mph 27.6 mph N/A   Clear
3:55 PM 57.2 °F - 33.8 °F 41% 29.69 in 10.0 mi South 23.0 mph 32.2 mph N/A   Clear
4:15 PM 57.2 °F - 33.8 °F 41% 29.68 in 10.0 mi SSE 23.0 mph 26.5 mph N/A   Clear
4:35 PM 57.2 °F - 33.8 °F 41% 29.68 in 10.0 mi SSE 17.3 mph 26.5 mph N/A   Clear
4:55 PM 57.2 °F - 33.8 °F 41% 29.67 in 10.0 mi SSE 15.0 mph 18.4 mph N/A   Clear
5:15 PM 55.4 °F - 33.8 °F 44% 29.67 in 10.0 mi SE 15.0 mph 23.0 mph N/A   Clear
5:35 PM 53.6 °F - 33.8 °F 47% 29.67 in 10.0 mi SE 15.0 mph - N/A   Clear
5:55 PM 53.6 °F - 33.8 °F 47% 29.67 in 10.0 mi SE 13.8 mph 23.0 mph N/A   Clear
6:15 PM 53.6 °F - 33.8 °F 47% 29.68 in 10.0 mi SSE 12.7 mph 21.9 mph N/A   Clear
6:35 PM 53.6 °F - 33.8 °F 47% 29.69 in 10.0 mi SE 15.0 mph 20.7 mph N/A   Clear
6:55 PM 53.6 °F - 33.8 °F 47% 29.69 in 10.0 mi SE 16.1 mph 24.2 mph N/A   Clear
7:15 PM 53.6 °F - 33.8 °F 47% 29.70 in 10.0 mi SSE 15.0 mph 21.9 mph N/A   Clear
7:35 PM 53.6 °F - 33.8 °F 47% 29.69 in 10.0 mi SSE 20.7 mph 24.2 mph N/A   Clear
7:55 PM 53.6 °F - 33.8 °F 47% 29.69 in 10.0 mi SSE 17.3 mph 28.8 mph N/A   Clear
8:15 PM 53.6 °F - 33.8 °F 47% 29.70 in 10.0 mi SSE 11.5 mph 18.4 mph N/A   Clear
8:35 PM 53.6 °F - 33.8 °F 47% 29.71 in 10.0 mi SSE 12.7 mph - N/A   Clear
8:55 PM 51.8 °F - 35.6 °F 54% 29.72 in 10.0 mi SSE 12.7 mph 17.3 mph N/A   Clear
9:15 PM 51.8 °F - 35.6 °F 54% 29.72 in 10.0 mi SE 10.4 mph 17.3 mph N/A   Clear
9:35 PM 51.8 °F - 35.6 °F 54% 29.72 in 10.0 mi SSE 12.7 mph - N/A   Clear
9:55 PM 51.8 °F - 35.6 °F 54% 29.72 in 10.0 mi SSE 11.5 mph - N/A   Clear
10:15 PM 51.8 °F - 35.6 °F 54% 29.73 in 10.0 mi SSE 10.4 mph 18.4 mph N/A   Clear
10:35 PM 51.8 °F - 35.6 °F 54% 29.73 in 10.0 mi SSE 12.7 mph 19.6 mph N/A   Clear
10:55 PM 50.0 °F - 35.6 °F 58% 29.73 in 10.0 mi SSE 11.5 mph - N/A   Clear